Radiation Dose at Monitoring Post of Fukushima Daini Nuclear Power Station
Date,Time,MP-1(microSv/h),MP-2(microSv/h),MP-3(microSv/h),MP-4(microSv/h),MP-5(microSv/h),MP-6(microSv/h),MP-7(microSv/h),Wind Direction,Wind Velocity(m/s),Rain
2017/10/22,00:00,0.319,0.204,0.327,0.311,0.303,0.162,0.099,north-northeast,2.0,Yes
2017/10/22,00:10,0.322,0.202,0.329,0.308,0.306,0.162,0.098,northeast,1.9,Yes
2017/10/22,00:20,0.319,0.204,0.328,0.310,0.305,0.163,0.099,east-northeast,2.2,Yes
2017/10/22,00:30,0.323,0.202,0.328,0.307,0.306,0.164,0.099,east-northeast,2.7,Yes
2017/10/22,00:40,0.321,0.204,0.329,0.311,0.306,0.163,0.099,east-northeast,1.5,Yes
2017/10/22,00:50,0.323,0.204,0.330,0.309,0.305,0.164,0.099,east-northeast,2.1,Yes
2017/10/22,01:00,0.321,0.204,0.329,0.310,0.308,0.164,0.100,east-northeast,2.4,Yes
2017/10/22,01:10,0.323,0.202,0.327,0.308,0.304,0.163,0.099,east,3.4,Yes
2017/10/22,01:20,0.321,0.203,0.328,0.310,0.306,0.162,0.099,east-northeast,2.4,Yes
2017/10/22,01:30,0.323,0.202,0.327,0.307,0.304,0.162,0.099,east,4.1,Yes
2017/10/22,01:40,0.321,0.203,0.328,0.310,0.306,0.162,0.099,east-southeast,3.9,Yes
2017/10/22,01:50,0.321,0.202,0.328,0.308,0.304,0.162,0.098,east-southeast,3.0,Yes
2017/10/22,02:00,0.320,0.204,0.327,0.309,0.307,0.163,0.099,east-southeast,3.6,Yes
2017/10/22,02:10,0.320,0.202,0.326,0.309,0.305,0.163,0.100,east-southeast,3.3,Yes
2017/10/22,02:20,0.321,0.204,0.328,0.309,0.305,0.163,0.099,east-southeast,3.9,Yes
2017/10/22,02:30,0.320,0.201,0.326,0.309,0.305,0.162,0.099,east,4.5,Yes
2017/10/22,02:40,0.322,0.203,0.329,0.307,0.304,0.163,0.100,east,4.3,Yes
2017/10/22,02:50,0.319,0.204,0.326,0.308,0.306,0.163,0.100,east,4.8,Yes
2017/10/22,03:00,0.322,0.205,0.328,0.307,0.306,0.164,0.100,east,5.6,Yes
2017/10/22,03:10,0.319,0.202,0.326,0.309,0.308,0.163,0.101,east-northeast,5.6,Yes
2017/10/22,03:20,0.320,0.204,0.328,0.306,0.304,0.163,0.100,east,5.5,Yes
2017/10/22,03:30,0.319,0.203,0.325,0.309,0.307,0.162,0.100,east,5.1,Yes
2017/10/22,03:40,0.320,0.204,0.327,0.306,0.303,0.163,0.100,east-southeast,5.5,Yes
2017/10/22,03:50,0.318,0.202,0.325,0.308,0.307,0.162,0.100,east-southeast,6.0,Yes
2017/10/22,04:00,0.320,0.204,0.328,0.306,0.304,0.163,0.100,east,5.9,Yes
2017/10/22,04:10,0.320,0.202,0.325,0.308,0.307,0.163,0.100,southeast,8.1,Yes
2017/10/22,04:20,0.319,0.202,0.327,0.306,0.305,0.162,0.100,east-southeast,7.6,Yes
2017/10/22,04:30,0.320,0.201,0.326,0.309,0.306,0.162,0.099,east-southeast,7.0,Yes
2017/10/22,04:40,0.319,0.203,0.325,0.305,0.305,0.162,0.099,east,6.0,Yes
2017/10/22,04:50,0.320,0.202,0.325,0.308,0.304,0.162,0.100,east-southeast,6.3,Yes
2017/10/22,05:00,0.317,0.202,0.325,0.306,0.306,0.161,0.099,east,6.0,Yes
2017/10/22,05:10,0.321,0.201,0.325,0.307,0.303,0.162,0.099,southeast,8.8,Yes
2017/10/22,05:20,0.317,0.202,0.325,0.305,0.305,0.161,0.099,south-southeast,13.7,Yes
2017/10/22,05:30,0.319,0.201,0.325,0.306,0.302,0.162,0.099,east-southeast,4.6,Yes
2017/10/22,05:40,0.317,0.202,0.322,0.305,0.305,0.161,0.098,south-southeast,8.4,Yes
2017/10/22,05:50,0.318,0.200,0.325,0.305,0.302,0.161,0.099,southeast,5.4,Yes
2017/10/22,06:00,0.317,0.203,0.324,0.305,0.306,0.161,0.098,east-southeast,4.6,Yes
2017/10/22,06:10,0.318,0.201,0.326,0.304,0.304,0.160,0.099,east-northeast,5.4,Yes
2017/10/22,06:20,0.318,0.201,0.323,0.307,0.303,0.161,0.098,east,4.9,Yes
2017/10/22,06:30,0.319,0.201,0.325,0.306,0.303,0.160,0.098,east-northeast,5.3,Yes
2017/10/22,06:40,0.318,0.202,0.323,0.306,0.302,0.161,0.098,east-southeast,4.8,Yes
2017/10/22,06:50,0.316,0.200,0.325,0.304,0.304,0.160,0.099,southeast,5.2,Yes
2017/10/22,07:00,0.317,0.202,0.322,0.305,0.301,0.160,0.098,southeast,8.4,Yes
2017/10/22,07:10,0.315,0.201,0.325,0.305,0.305,0.160,0.099,east-southeast,4.8,Yes
2017/10/22,07:20,0.317,0.201,0.322,0.304,0.301,0.160,0.100,east-northeast,5.8,Yes
2017/10/22,07:30,0.315,0.202,0.322,0.305,0.305,0.161,0.100,east-northeast,4.8,Yes
2017/10/22,07:40,0.319,0.201,0.322,0.304,0.302,0.160,0.099,east,4.1,Yes
2017/10/22,07:50,0.316,0.202,0.324,0.305,0.305,0.160,0.099,east-northeast,3.9,Yes
2017/10/22,08:00,0.318,0.202,0.323,0.304,0.303,0.160,0.100,east-southeast,4.3,Yes
2017/10/22,08:10,0.317,0.202,0.323,0.305,0.304,0.161,0.100,northeast,5.7,Yes
2017/10/22,08:20,0.318,0.201,0.322,0.303,0.302,0.161,0.099,-,CALM,Yes
2017/10/22,08:30,0.316,0.202,0.322,0.305,0.302,0.161,0.099,-,CALM,Yes
2017/10/22,08:40,0.317,0.201,0.322,0.303,0.304,0.161,0.099,northeast,5.9,Yes
2017/10/22,08:50,0.317,0.201,0.322,0.305,0.303,0.161,0.100,east-northeast,7.0,Yes
2017/10/22,09:00,0.316,0.201,0.322,0.301,0.304,0.162,0.099,northeast,7.0,Yes
2017/10/22,09:10,0.317,0.202,0.319,0.305,0.301,0.160,0.100,northeast,6.6,Yes
2017/10/22,09:20,0.314,0.201,0.321,0.302,0.304,0.160,0.100,east-northeast,5.4,Yes
2017/10/22,09:30,0.317,0.202,0.321,0.303,0.303,0.161,0.099,northeast,7.7,Yes
2017/10/22,09:40,0.314,0.201,0.323,0.305,0.304,0.159,0.100,northeast,8.2,Yes
2017/10/22,09:50,0.317,0.201,0.320,0.302,0.302,0.161,0.099,northeast,8.8,Yes
2017/10/22,10:00,0.315,0.200,0.324,0.305,0.303,0.161,0.099,northeast,8.1,Yes
2017/10/22,10:10,0.316,0.202,0.321,0.301,0.303,0.160,0.099,east-northeast,7.1,Yes
2017/10/22,10:20,0.314,0.201,0.323,0.306,0.302,0.161,0.100,-,CALM,Yes
2017/10/22,10:30,0.316,0.203,0.320,0.301,0.304,0.161,0.100,east-northeast,8.6,Yes
2017/10/22,10:40,0.314,0.202,0.321,0.304,0.302,0.160,0.100,east-northeast,7.3,Yes
2017/10/22,10:50,0.315,0.201,0.320,0.301,0.304,0.161,0.099,east-northeast,6.6,Yes
2017/10/22,11:00,0.315,0.201,0.320,0.305,0.301,0.160,0.099,east-northeast,7.1,Yes
2017/10/22,11:10,0.314,0.201,0.322,0.302,0.304,0.160,0.099,northeast,5.6,Yes
2017/10/22,11:20,0.315,0.201,0.318,0.302,0.301,0.160,0.100,-,CALM,Yes
2017/10/22,11:30,0.314,0.201,0.321,0.303,0.303,0.160,0.098,east-northeast,5.9,Yes
2017/10/22,11:40,0.315,0.200,0.318,0.302,0.303,0.160,0.099,northeast,6.6,Yes
2017/10/22,11:50,0.313,0.202,0.322,0.302,0.301,0.160,0.099,northeast,6.5,Yes
2017/10/22,12:00,0.316,0.201,0.317,0.300,0.303,0.159,0.100,northeast,8.2,Yes
2017/10/22,12:10,0.314,0.202,0.320,0.302,0.301,0.161,0.099,north-northeast,7.6,Yes
2017/10/22,12:20,0.314,0.201,0.319,0.302,0.303,0.159,0.099,northeast,6.6,Yes
2017/10/22,12:30,0.313,0.201,0.321,0.304,0.301,0.160,0.098,north-northeast,7.6,Yes
2017/10/22,12:40,0.314,0.200,0.319,0.303,0.304,0.159,0.099,northeast,8.7,Yes
2017/10/22,12:50,0.313,0.201,0.318,0.302,0.302,0.161,0.098,north-northeast,8.4,Yes
2017/10/22,13:00,0.315,0.200,0.320,0.301,0.303,0.160,0.099,north-northeast,9.5,Yes
2017/10/22,13:10,0.313,0.200,0.319,0.301,0.301,0.160,0.098,north-northeast,9.2,Yes
2017/10/22,13:20,0.314,0.200,0.319,0.302,0.301,0.160,0.099,-,CALM,Yes
2017/10/22,13:30,0.312,0.200,0.317,0.300,0.302,0.159,0.098,north-northeast,8.7,Yes
2017/10/22,13:40,0.311,0.199,0.317,0.300,0.301,0.159,0.099,northeast,8.5,Yes
2017/10/22,13:50,0.312,0.200,0.316,0.298,0.300,0.158,0.099,northeast,11.4,Yes
2017/10/22,14:00,0.311,0.199,0.319,0.299,0.300,0.159,0.099,-,CALM,Yes
2017/10/22,14:10,0.312,0.201,0.316,0.299,0.303,0.158,0.099,-,CALM,Yes
2017/10/22,14:20,0.310,0.200,0.317,0.302,0.300,0.159,0.098,north-northeast,11.0,Yes
2017/10/22,14:30,0.313,0.200,0.314,0.298,0.302,0.158,0.098,-,CALM,Yes
2017/10/22,14:40,0.309,0.200,0.318,0.300,0.300,0.159,0.099,-,CALM,Yes
2017/10/22,14:50,0.311,0.200,0.315,0.299,0.301,0.158,0.099,-,CALM,Yes
2017/10/22,15:00,0.309,0.200,0.316,0.297,0.299,0.159,0.100,-,CALM,Yes
2017/10/22,15:10,0.312,0.199,0.312,0.296,0.302,0.158,0.098,north-northeast,12.9,Yes
2017/10/22,15:20,0.309,0.200,0.315,0.298,0.300,0.158,0.099,-,CALM,Yes
2017/10/22,15:30,0.311,0.200,0.311,0.295,0.301,0.157,0.098,-,CALM,Yes
2017/10/22,15:40,0.307,0.199,0.314,0.297,0.298,0.157,0.098,-,CALM,Yes
2017/10/22,15:50,0.311,0.199,0.312,0.295,0.301,0.157,0.099,north-northeast,11.5,Yes
2017/10/22,16:00,0.307,0.200,0.314,0.297,0.297,0.157,0.098,-,CALM,Yes
2017/10/22,16:10,0.309,0.198,0.310,0.295,0.298,0.157,0.098,-,CALM,Yes
2017/10/22,16:20,0.305,0.198,0.311,0.295,0.296,0.154,0.097,-,CALM,Yes
2017/10/22,16:30,0.306,0.197,0.308,0.292,0.298,0.155,0.098,north-northeast,11.5,Yes
2017/10/22,16:40,0.305,0.198,0.309,0.295,0.294,0.155,0.097,-,CALM,Yes
2017/10/22,16:50,0.306,0.197,0.308,0.291,0.297,0.155,0.097,-,CALM,Yes
2017/10/22,17:00,0.305,0.198,0.309,0.295,0.293,0.154,0.098,-,CALM,Yes
2017/10/22,17:10,0.304,0.197,0.307,0.291,0.296,0.154,0.097,-,CALM,Yes
2017/10/22,17:20,0.304,0.198,0.308,0.292,0.293,0.154,0.098,-,CALM,Yes
2017/10/22,17:30,0.306,0.198,0.307,0.292,0.297,0.154,0.098,-,CALM,Yes
2017/10/22,17:40,0.304,0.198,0.309,0.296,0.295,0.154,0.099,north-northeast,13.7,Yes
2017/10/22,17:50,0.306,0.199,0.312,0.295,0.297,0.156,0.099,north-northeast,13.4,Yes
2017/10/22,18:00,0.305,0.198,0.310,0.296,0.295,0.155,0.098,north-northeast,13.3,Yes
2017/10/22,18:10,0.306,0.198,0.311,0.295,0.297,0.155,0.099,north-northeast,15.3,Yes
2017/10/22,18:20,0.305,0.199,0.309,0.297,0.296,0.154,0.098,-,CALM,Yes
2017/10/22,18:30,0.306,0.197,0.311,0.294,0.295,0.155,0.099,north-northeast,14.7,Yes
2017/10/22,18:40,0.306,0.198,0.310,0.297,0.295,0.154,0.098,north,12.3,Yes
2017/10/22,18:50,0.307,0.199,0.311,0.296,0.298,0.156,0.099,north-northeast,13.7,Yes
2017/10/22,19:00,0.307,0.199,0.308,0.296,0.296,0.155,0.099,north,14.4,Yes
2017/10/22,19:10,0.308,0.199,0.314,0.297,0.300,0.156,0.099,north-northeast,12.6,Yes
2017/10/22,19:20,0.308,0.201,0.313,0.299,0.299,0.156,0.098,north-northeast,15.5,Yes
2017/10/22,19:30,0.310,0.199,0.315,0.299,0.300,0.157,0.098,north-northeast,14.0,Yes
2017/10/22,19:40,0.309,0.200,0.314,0.301,0.300,0.156,0.098,north-northeast,14.2,Yes
2017/10/22,19:50,0.308,0.199,0.314,0.298,0.298,0.156,0.098,-,CALM,Yes
2017/10/22,20:00,0.307,0.199,0.311,0.296,0.298,0.156,0.098,-,CALM,Yes
2017/10/22,20:10,0.304,0.198,0.310,0.294,0.295,0.155,0.099,north,12.9,Yes
2017/10/22,20:20,0.304,0.197,0.306,0.291,0.292,0.154,0.097,-,CALM,Yes
2017/10/22,20:30,0.299,0.198,0.305,0.291,0.293,0.153,0.098,-,CALM,Yes
2017/10/22,20:40,0.301,0.198,0.303,0.290,0.293,0.155,0.098,north-northeast,16.9,Yes
2017/10/22,20:50,0.298,0.197,0.304,0.292,0.289,0.154,0.098,-,CALM,Yes
2017/10/22,21:00,0.300,0.197,0.305,0.290,0.290,0.154,0.099,north,14.2,Yes
2017/10/22,21:10,0.296,0.196,0.303,0.291,0.289,0.154,0.098,north,13.7,Yes
2017/10/22,21:20,0.298,0.199,0.306,0.294,0.293,0.154,0.100,north,9.8,Yes
2017/10/22,21:30,0.298,0.197,0.305,0.294,0.291,0.154,0.099,-,CALM,Yes
2017/10/22,21:40,0.299,0.199,0.307,0.293,0.292,0.155,0.099,north,11.0,Yes
2017/10/22,21:50,0.301,0.199,0.308,0.297,0.294,0.156,0.099,north-northwest,7.7,Yes
2017/10/22,22:00,0.302,0.198,0.313,0.298,0.293,0.155,0.099,north,16.4,Yes
2017/10/22,22:10,0.302,0.200,0.310,0.299,0.295,0.157,0.100,north,11.0,Yes
2017/10/22,22:20,0.303,0.198,0.311,0.298,0.294,0.156,0.099,north-northwest,10.4,Yes
2017/10/22,22:30,0.307,0.201,0.313,0.299,0.296,0.157,0.099,north,10.7,Yes
2017/10/22,22:40,0.308,0.199,0.315,0.300,0.297,0.159,0.099,north,10.7,Yes
2017/10/22,22:50,0.310,0.200,0.316,0.302,0.299,0.158,0.099,north,12.0,Yes
2017/10/22,23:00,0.307,0.200,0.316,0.301,0.297,0.157,0.099,-,CALM,Yes
2017/10/22,23:10,0.311,0.200,0.316,0.300,0.300,0.157,0.100,north,12.3,Yes
2017/10/22,23:20,0.310,0.199,0.316,0.303,0.299,0.158,0.099,north,13.7,Yes
2017/10/22,23:30,0.310,0.202,0.318,0.302,0.301,0.158,0.099,north,14.0,Yes
2017/10/22,23:40,0.310,0.200,0.317,0.303,0.300,0.158,0.100,north,12.2,Yes
2017/10/22,23:50,0.310,0.201,0.317,0.301,0.301,0.158,0.099,north,14.4,Yes
